Regional Weather Roundup
Issued by NWS

Home | Current Version | Previous Version | Text Only | Print | Product List | Glossary Off
Versions: 1 2 3 4 5 6 7 8 9 10 11 12 13 14 15 16 17 18 19 20 21 22 23 24 25 26 27 28 29 30 31 32 33 34 35 36 37 38 39 40 41 42 43 44 45 46 47 48 49 50

000
ASUS43 KTOP 231908
RWRKS

WEATHER ROUNDUP FOR KANSAS
NATIONAL WEATHER SERVICE GOODLAND KS
200 PM CDT SAT SEP 23 2017

NOTE:  "FAIR" INDICATES FEW OR NO CLOUDS BELOW 12,000 FEET WITH NO
SIGNIFICANT WEATHER AND/OR OBSTRUCTIONS TO VISIBILITY.

KSZ001>006-013>018-027>032-041>047-232000-
NORTHWEST KANSAS

CITY           SKY/WX    TMP DP  RH WIND       PRES   REMARKS
GOODLAND       PTSUNNY   59  49  69 N12       29.95F
HAYS           PTSUNNY   90  64  42 S20G31    29.87F
HILL CITY      MOSUNNY   90  65  43 S16G26    29.86F
RUSSELL        MOSUNNY   91  62  37 S21G29    29.88F
$$

KSZ061>065-074>080-084>089-232000-
SOUTHWEST KANSAS

CITY           SKY/WX    TMP DP  RH WIND       PRES   REMARKS
DODGE CITY     MOSUNNY   90  62  39 S24       29.91F
ELKHART          N/A     81  65  58 S18         N/A
GARDEN CITY    MOSUNNY   86  62  44 S25G35    29.88F
GREAT BEND     MOSUNNY   89  65  44 S22G28    29.90F
LIBERAL        PTSUNNY   84  65  52 S22G30    29.91F
PRATT          MOSUNNY   88  60  38 S21       29.93F
$$

KSZ066>073-081>083-090>101-232000-
SOUTHEAST KANSAS

CITY           SKY/WX    TMP DP  RH WIND       PRES   REMARKS
CHANUTE        SUNNY     88  67  49 S14       30.00F
COFFEYVILLE    SUNNY     89  67  47 S13       29.98F
HUTCHINSON     MOSUNNY   90  65  43 S22G28    29.92F
MEDICINE LODGE   N/A     88  62  41 S16G30    29.90F
NEWTON         MOSUNNY   87  64  46 S21G28    29.96F
PARSONS        MOSUNNY   88  67  49 S8        30.00F
WICHITA INTL   MOSUNNY   90  65  43 S15       29.94F
WICHITA JABRA  MOSUNNY   87  65  47 S17G23    29.95F
WICHITA MCCONL MOSUNNY   88  65  45 S8        29.95F
WINFIELD       MOSUNNY   88  66  48 SE14      29.97F
$$

KSZ007>012-019>026-033>040-048>060-102>105-232000-
NORTHEAST KANSAS

CITY           SKY/WX    TMP DP  RH WIND       PRES   REMARKS
CONCORDIA      MOSUNNY   87  67  51 S14G24    29.92F
EMPORIA        MOSUNNY   86  66  51 S14G26    29.98F
LAWRENCE       MOSUNNY   89  69  51 SE13G21   29.98F
MANHATTAN      MOSUNNY   92  64  39 S14G25    29.94F
MARYSVILLE     MOSUNNY   90  64  43 S14G22    29.94F
OLATHE IND     MOSUNNY   86  69  56 SE9       30.01F
OLATHE EXE     SUNNY     86  69  56 S14       30.01F
SALINA         SUNNY     94  62  34 S22G29    29.91F
TOPEKA BILLARD MOSUNNY   89  68  49 SE17G24   29.97F
TOPEKA FORBES  MOSUNNY   90  68  48 S12       29.98F
$$



USA.gov is the U.S. government's official web portal to all federal, state and local government web resources and services.